Home   Weather   Gustavia   Past weeks

Past Weather in Gustavia, Saint Barthélemy — Yesterday and Last 2 Weeks

Now
81 °F

Scattered clouds.


Feels Like: 83 °F
Forecast: 69 / 77 °F
Wind: 6 mph from West

Location: Juliana Airport - Saint Maarten

Current Time: Jan 21, 2017 at 1:35:30 pm

Latest Report: Jan 21, 2017 at 1:00 pm


Visibility: N/A

Pressure: 29.98 "Hg

Humidity: 62%

Dew Point: 66 °F

Location of GustaviaLocation

Past Weather in Gustavia — Graph

°F

Gustavia Temperature Yesterday

Maximum temperature yesterday: 81 °F (at 10:00 am)
Minimum temperature yesterday: 72 °F (at 2:00 am)
Average temperature yesterday: 76 °F

High & Low Weather Summary for the Past Weeks

 TemperatureHumidityPressure
High82 °F (Jan 6, 12:00 pm)100% (Jan 11, 5:00 am)30.12 "Hg (Jan 11, 5:00 am)
Low72 °F (Jan 11, 4:14 am)51% (Jan 9, 3:00 pm)29.92 "Hg (Jan 10, 2:00 pm)
Average78 °F74%30.01 "Hg
* Reported Jan 6 12:00 pm — Jan 21 12:00 pm, Gustavia, Weather by CustomWeather, © 2017

Note: Actual official high and low records may vary slightly from our data, if they occured in-between our weather recording intervals... More about our weather records

Advertising

Gustavia Weather History for the Previous 24 Hours

Scroll right to see more
 ConditionsComfort  
Time TempWeatherWind HumidityBarometerVisibility
12:00 pm
Sat, Jan 21
81 °FScattered clouds.5 mph62%30.01 "HgN/A
11:00 am81 °FScattered clouds.1 mph66%30.04 "HgN/A
10:00 am81 °FScattered clouds.2 mph66%30.04 "HgN/A
9:00 am81 °FScattered clouds.1 mph66%30.01 "HgN/A
8:00 am77 °FPassing clouds.1 mph74%29.98 "HgN/A
7:00 am73 °FPassing clouds.1 mph78%29.98 "HgN/A
6:00 am75 °FPassing clouds.1 mph74%29.98 "HgN/A
5:00 am75 °FPassing clouds.No wind69%29.95 "HgN/A
4:00 am73 °FPassing clouds.1 mph78%29.95 "HgN/A
3:00 am73 °FPassing clouds.6 mph78%29.95 "HgN/A
2:00 am73 °FPassing clouds.6 mph83%29.98 "HgN/A
1:00 am73 °FPassing clouds.1 mph78%30.01 "HgN/A
12:00 am73 °FPassing clouds.2 mph78%30.01 "HgN/A
11:00 pm
Fri, Jan 20
75 °FClear.3 mph74%30.01 "Hg10 mi
10:00 pm73 °FClear.2 mph78%30.01 "Hg10 mi
9:00 pm75 °FClear.3 mph69%30.01 "Hg10 mi
8:00 pm75 °FClear.3 mph69%29.98 "Hg10 mi
7:00 pm75 °FClear.2 mph69%29.98 "Hg10 mi
6:00 pm77 °FPassing clouds.3 mph61%29.98 "HgN/A
5:00 pm79 °FPassing clouds.6 mph54%29.95 "HgN/A
4:00 pm79 °FPassing clouds.6 mph54%29.95 "HgN/A
3:00 pm81 °FPassing clouds.5 mph54%29.95 "HgN/A
2:00 pm81 °FPassing clouds.5 mph54%29.95 "HgN/A
1:00 pm79 °FPassing clouds.7 mph58%29.98 "HgN/A
Weather by CustomWeather, © 2017

See weather overviewHow to use our weather pages